Location: ???? ?????????
(44.3677°N, 135.2344°E)
Time: 02:56:20
(UTC+00:00)

Cosmos 2237 - Pass Details

Date: 19 May 2025
Orbit: 848 x 854 km, 70.8° (Epoch: 14 June)

Event Time Altitude Azimuth Distance (km) Brightness Sun altitude
Rises 14:21:34 0° 331° (NNW) 3,420 8.5 -25.3°
Reaches altitude 10° 14:24:02 10° 329° (NNW) 2,480 7.5 -25.3°
Maximum altitude 14:29:40 66° 249° (WSW) 925 4.2 -25.5°
Enters shadow 14:30:09 63° 220° (SW) 945 4.2 -25.5°
